Weather reports worldwide

Advertisment
Pontevedra, Spain (8044): temperature & dewpoint: 20.09.2018 11:00:00 - 26.09.2018 11:00:00 (CEST)Pontevedra, Spain (8044): wind speed: 20.09.2018 11:00:00 - 26.09.2018 11:00:00 (CEST)Pontevedra, Spain (8044): wind direction: 20.09.2018 11:00:00 - 26.09.2018 11:00:00 (CEST)Pontevedra, Spain (8044): reduced air pressure: 20.09.2018 11:00:00 - 26.09.2018 11:00:00 (CEST)Pontevedra, Spain (8044): visibility: 20.09.2018 11:00:00 - 26.09.2018 11:00:00 (CEST)Pontevedra, Spain (8044): precipitation: 20.09.2018 11:00:00 - 26.09.2018 11:00:00 (CEST)
Date & Time tt [°C] td [°C] ff [km/h] ff [kn] dd ppp [hPa] vv [km] rr [mm]
26.09.2018 11:00:00 20,7 11,9 4 2 SW 1020,8 20 -
26.09.2018 10:00:00 19,3 8,9 8 4 ENE 1020,2 20 0,0
26.09.2018 09:00:00 16,3 9,9 2 1 SSW 1019,9 20 0,0
26.09.2018 08:00:00 16,6 10,0 2 1 E 1019,2 20 -
26.09.2018 07:00:00 16,9 9,8 2 1 ENE 1018,9 20 0,0
26.09.2018 06:00:00 17,8 9,4 5 3 E 1018,7 20 0,0
26.09.2018 05:00:00 17,5 10,8 4 2 E 1018,7 20 -
26.09.2018 04:00:00 17,5 11,1 2 1 SSE 1019,0 20 0,0
26.09.2018 03:00:00 17,9 11,9 5 3 N 1018,9 20 0,0
26.09.2018 02:00:00 17,9 12,1 2 1 NNW 1019,0 20 -
26.09.2018 01:00:00 19,2 12,2 4 2 N 1018,8 20 0,0
26.09.2018 00:00:00 19,9 12,9 5 3 N 1018,6 20 0,0
25.09.2018 23:00:00 21,1 13,0 2 1 W 1018,6 20 -
25.09.2018 22:00:00 22,6 12,8 4 2 NNW 1018,3 20 0,0
25.09.2018 21:00:00 24,5 12,8 4 2 N 1017,9 20 0,0
25.09.2018 20:00:00 27,7 13,2 4 2 WNW 1017,4 20 -
25.09.2018 19:00:00 29,6 12,9 9 5 WNW 1017,1 20 0,0
25.09.2018 18:00:00 30,2 13,0 11 6 W 1017,3 20 0,0
25.09.2018 17:00:00 30,6 12,5 16 9 W 1017,7 20 -
25.09.2018 16:00:00 30,4 12,3 11 6 WNW 1018,2 20 0,0
25.09.2018 15:00:00 28,9 12,3 9 5 W 1018,9 20 0,0
25.09.2018 14:00:00 27,4 12,2 5 3 WNW 1019,7 20 -
25.09.2018 13:00:00 24,8 11,7 4 2 W 1020,3 20 0,0
25.09.2018 12:00:00 21,8 11,8 4 2 SSW 1020,6 20 0,0
25.09.2018 11:00:00 18,4 11,9 4 2 S 1020,8 20 -
25.09.2018 10:00:00 15,9 11,3 5 3 SSE 1020,6 20 0,0
25.09.2018 09:00:00 13,9 11,4 5 3 SSE 1020,2 20 0,0
25.09.2018 08:00:00 14,1 12,0 2 1 S 1019,8 20 -
25.09.2018 07:00:00 14,2 11,9 2 1 SSE 1019,5 20 0,0
25.09.2018 06:00:00 14,1 11,6 4 2 SSE 1019,6 20 0,0
25.09.2018 05:00:00 14,7 11,5 4 2 SE 1019,9 20 -
25.09.2018 04:00:00 15,0 11,4 0 0 N 1020,1 20 0,0
25.09.2018 03:00:00 15,7 11,5 2 1 W 1020,2 20 0,0
25.09.2018 02:00:00 16,1 11,9 4 2 NNW 1020,5 20 -
25.09.2018 01:00:00 16,3 11,7 4 2 NNW 1020,6 20 0,0
25.09.2018 00:00:00 16,9 11,8 4 2 NW 1020,7 20 0,0
24.09.2018 23:00:00 18,1 12,3 4 2 NNW 1020,6 20 -
24.09.2018 22:00:00 20,4 12,9 8 4 NW 1020,3 20 0,0
24.09.2018 21:00:00 22,7 14,3 5 3 NW 1019,7 20 0,0
24.09.2018 20:00:00 26,4 15,1 8 4 NW 1019,3 20 -
24.09.2018 19:00:00 28,4 15,7 9 5 NNW 1019,3 20 0,0
24.09.2018 18:00:00 29,3 15,8 15 8 NW 1019,3 20 0,0
24.09.2018 17:00:00 29,2 15,7 18 10 WNW 1019,8 20 -
24.09.2018 16:00:00 29,2 16,0 13 7 WNW 1020,5 20 0,0
24.09.2018 15:00:00 28,0 16,0 13 7 W 1021,1 20 0,0
24.09.2018 14:00:00 27,3 16,0 15 8 WNW 1021,9 20 -
24.09.2018 13:00:00 27,3 16,0 5 3 N 1022,6 20 0,0
24.09.2018 12:00:00 24,9 15,2 9 5 N 1023,1 20 0,0
24.09.2018 11:00:00 22,8 15,1 8 4 NE 1023,4 20 -
24.09.2018 10:00:00 19,8 14,6 5 3 NNE 1023,4 20 0,0
24.09.2018 09:00:00 18,4 14,3 8 4 NE 1023,4 20 0,0
24.09.2018 08:00:00 18,9 14,6 9 5 NE 1023,2 20 -
24.09.2018 07:00:00 19,4 14,9 9 5 NNE 1022,9 20 0,0
24.09.2018 06:00:00 19,4 15,3 8 4 N 1022,8 20 0,0
24.09.2018 05:00:00 19,7 15,8 8 4 NNW 1023,0 20 -
24.09.2018 04:00:00 19,8 15,9 8 4 NNW 1023,3 20 0,0
24.09.2018 03:00:00 20,0 16,0 8 4 NNW 1023,6 20 0,0
24.09.2018 02:00:00 20,2 16,2 4 2 NNW 1023,9 20 -
24.09.2018 01:00:00 21,1 16,7 11 6 NNW 1024,0 20 0,0
24.09.2018 00:00:00 21,4 17,2 8 4 N 1024,1 20 0,0
23.09.2018 23:00:00 21,5 17,5 9 5 NNE 1024,2 20 -
23.09.2018 22:00:00 21,7 17,5 9 5 NNE 1024,3 20 0,0
23.09.2018 21:00:00 22,9 17,6 11 6 NNW 1023,9 20 0,0
23.09.2018 20:00:00 25,7 17,4 9 5 N 1023,2 20 -
23.09.2018 19:00:00 27,7 18,4 13 7 NNW 1022,7 20 0,0
23.09.2018 18:00:00 30,1 18,2 16 9 NNW 1022,2 20 0,0
23.09.2018 17:00:00 30,5 17,2 15 8 NW 1022,2 20 -
23.09.2018 16:00:00 29,8 15,5 16 9 NW 1022,6 20 0,0
23.09.2018 15:00:00 28,4 15,7 18 10 NW 1023,0 20 0,0
23.09.2018 14:00:00 25,9 16,2 11 6 W 1023,6 20 -
23.09.2018 13:00:00 23,1 17,1 13 7 W 1024,0 20 0,0
23.09.2018 12:00:00 20,7 16,9 4 2 SSW 1024,1 20 0,0
23.09.2018 11:00:00 17,0 16,4 4 2 NNW 1024,2 15 -
23.09.2018 10:00:00 15,8 15,5 2 1 NW 1024,3 0,3 0,0
23.09.2018 09:00:00 15,5 15,0 2 1 N 1023,7 0,4 0,0
23.09.2018 08:00:00 15,9 15,6 4 2 E 1023,3 0,5 -
23.09.2018 07:00:00 15,6 15,0 0 0 N 1023,1 3,7 0,0
23.09.2018 06:00:00 16,2 15,6 2 1 SE 1022,9 - 0,0
23.09.2018 05:00:00 16,4 15,6 2 1 WNW 1022,9 6 -
23.09.2018 04:00:00 17,0 16,2 2 1 SSE 1023,0 8 0,0
23.09.2018 03:00:00 17,4 16,4 4 2 SSE 1023,1 9 0,0
23.09.2018 02:00:00 17,7 16,4 2 1 SSE 1023,3 11 -
23.09.2018 01:00:00 17,9 16,4 2 1 SSE 1023,6 12 0,0
23.09.2018 00:00:00 17,8 16,1 4 2 ESE 1023,6 20 0,0
22.09.2018 23:00:00 18,1 16,1 4 2 E 1023,7 20 -
22.09.2018 22:00:00 18,6 16,2 4 2 SSE 1023,5 20 0,0
22.09.2018 21:00:00 19,3 16,1 4 2 S 1022,9 20 0,0
22.09.2018 20:00:00 21,8 16,7 8 4 SSW 1022,5 20 -
22.09.2018 19:00:00 23,3 17,1 11 6 SW 1022,3 20 0,0
22.09.2018 18:00:00 25,2 17,1 9 5 SW 1022,1 20 0,0
22.09.2018 17:00:00 25,3 17,7 11 6 SSW 1022,4 20 -
22.09.2018 16:00:00 25,5 18,2 11 6 SW 1022,3 20 0,0
22.09.2018 15:00:00 25,0 18,0 9 5 SW 1022,7 20 0,0
22.09.2018 14:00:00 24,2 18,2 9 5 SSW 1023,1 20 -
22.09.2018 13:00:00 23,2 18,1 8 4 SSW 1023,4 20 0,0
22.09.2018 12:00:00 22,2 17,3 5 3 W 1023,2 20 0,0
22.09.2018 11:00:00 19,9 16,3 4 2 NNW 1022,8 20 -
22.09.2018 10:00:00 17,1 15,3 5 3 NNE 1022,7 20 0,0
22.09.2018 09:00:00 15,5 14,2 4 2 ENE 1022,7 - 0,0
22.09.2018 08:00:00 16,1 15,0 8 4 ENE 1022,2 20 -
22.09.2018 07:00:00 16,1 15,0 5 3 NE 1022,0 16 0,0
22.09.2018 06:00:00 16,2 14,9 4 2 ENE 1021,5 15 0,0
22.09.2018 05:00:00 16,4 15,3 9 5 ENE 1021,5 20 -
22.09.2018 04:00:00 16,5 15,2 8 4 ENE 1021,7 19 0,0
22.09.2018 03:00:00 16,9 15,8 9 5 ENE 1021,9 20 0,0
22.09.2018 02:00:00 17,2 16,1 9 5 ENE 1022,0 19 -
22.09.2018 01:00:00 17,6 16,5 5 3 ENE 1022,2 20 0,0
22.09.2018 00:00:00 17,9 16,8 5 3 ENE 1022,1 16 0,0
21.09.2018 23:00:00 18,3 17,1 2 1 ENE 1022,0 15 -
21.09.2018 22:00:00 18,7 17,2 4 2 SSE 1021,9 14 0,0
21.09.2018 21:00:00 19,6 17,6 5 3 SW 1021,6 3,5 0,0
21.09.2018 20:00:00 21,0 17,6 5 3 WSW 1021,1 15 -
21.09.2018 19:00:00 21,9 17,3 9 5 WSW 1020,9 20 0,0
21.09.2018 18:00:00 22,3 16,8 15 8 SW 1021,1 20 0,0
21.09.2018 17:00:00 23,1 16,4 9 5 WSW 1020,9 20 -
21.09.2018 16:00:00 22,4 16,0 13 7 SW 1021,0 20 0,0
21.09.2018 15:00:00 23,4 16,7 8 4 WSW 1021,0 20 0,0
21.09.2018 14:00:00 21,9 16,8 5 3 SW 1021,5 20 -
21.09.2018 13:00:00 21,7 16,6 5 3 S 1021,6 20 0,0
21.09.2018 12:00:00 20,8 16,6 5 3 S 1021,6 20 0,0
21.09.2018 11:00:00 19,4 17,2 2 1 WSW 1021,3 20 -
21.09.2018 10:00:00 18,2 17,0 4 2 NW 1020,9 19 0,0
21.09.2018 09:00:00 17,6 16,6 4 2 E 1020,7 19 0,0
21.09.2018 08:00:00 17,5 16,5 4 2 SSE 1020,5 15 -
21.09.2018 07:00:00 17,4 16,4 5 3 SE 1019,9 18 0,0
21.09.2018 06:00:00 17,2 16,2 0 0 N 1020,0 16 0,0
21.09.2018 05:00:00 17,4 16,3 2 1 N 1019,6 20 -
21.09.2018 04:00:00 17,3 16,3 4 2 ESE 1019,8 19 0,0
21.09.2018 03:00:00 17,5 16,5 4 2 N 1020,0 19 0,0
21.09.2018 02:00:00 17,6 16,5 2 1 NW 1020,0 20 -
21.09.2018 01:00:00 17,7 16,4 2 1 E 1020,2 20 0,0
21.09.2018 00:00:00 17,9 16,6 4 2 WNW 1020,6 20 0,0
20.09.2018 23:00:00 17,8 16,3 2 1 SSE 1020,6 15 -
20.09.2018 22:00:00 18,2 16,4 4 2 S 1020,0 6 0,0
20.09.2018 21:00:00 18,9 15,4 5 3 SW 1019,8 19 0,0
20.09.2018 20:00:00 19,0 15,5 2 1 SW 1020,0 20 -
20.09.2018 19:00:00 19,5 15,6 15 8 SW 1020,0 20 0,0
20.09.2018 18:00:00 21,2 15,3 16 9 SW 1019,6 20 0,0
20.09.2018 17:00:00 22,9 15,0 11 6 WSW 1019,1 20 -
20.09.2018 16:00:00 22,6 15,4 9 5 WSW 1019,6 20 0,0
20.09.2018 15:00:00 22,3 15,4 9 5 WSW 1020,2 20 0,0
20.09.2018 14:00:00 20,1 15,7 5 3 SW 1020,6 20 -
20.09.2018 13:00:00 18,3 15,4 4 2 WNW 1021,1 20 0,0
20.09.2018 12:00:00 16,3 15,0 2 1 NE 1021,3 16 0,0
20.09.2018 11:00:00 15,0 14,5 4 2 NW 1021,0 4,0 -

tt = temperature
td = dewpoint
ff = wind speed
dd = wind direction
ppp = reduced air pressure
vv = visibility
rr = precipitation

Next stations